Temp
-7 -6 -6 -6 -6 -6 -6 -6 -6 -6 -6 -6 -6 -7 -7 -6 -6 -6 -6 -6 -6 -6 -5 -5 -5 -5 -6 -6 -6 -6 -6 -6 -6 -6 -6 -6 -6 -6 -5 -5 -5 -5 -5 -6 -6 -6 -6 -6 -6 -6 -6 -6 -5 -5 -5 -6 -5 -5 -5 -6 -6 -6 -6
-7 -7 -6 -6 -6 -6 -6 -6 -6 -6 -6 -6 -7 -7 -7 -7 -6 -6 -6 -6 -6 -6 -5 -5 -5 -5 -5 -5 -6 -6 -6 -6 -6 -6 -6 -6 -6 -6 -5 -5 -5 -5 -6 -6 -6 -6 -6 -6 -6 -6 -6 -6 -6 -6 -6 -6 -5 -5 -5 -5 -5 -6 -6
-7 -7 -7 -6 -6 -6 -6 -6 -6 -6 -6 -6 -6 -7 -7 -7 -7 -6 -6 -6 -6 -6 -6 -5 -5 -5 -5 -5 -6 -6 -6 -6 -6 -6 -6 -6 -6 -6 -6 -5 -5 -5 -6 -6 -6 -6 -6 -6 -6 -6 -6 -6 -6 -6 -6 -6 -6 -5 -5 -5 -5 -5 -5
-7 -7 -7 -7 -6 -6 -6 -6 -6 -6 -6 -6 -6 -6 -7 -7 -7 -6 -6 -6 -6 -6 -6 -6 -5 -5 -5 -5 -5 -6 -6 -7 -6 -6 -6 -6 -6 -6 -6 -5 -5 -6 -6 -6 -6 -6 -6 -6 -6 -6 -6 -6 -6 -6 -6 -6 -6 -5 -5 -5 -5 -5 -5
-8 -7 -7 -7 -7 -6 -6 -6 -6 -6 -6 -6 -6 -6 -7 -7 -7 -6 -6 -6 -6 -6 -6 -5 -5 -5 -5 -5 -5 -6 -6 -6 -6 -6 -6 -6 -6 -6 -6 -6 -5 -6 -6 -6 -6 -6 -6 -6 -6 -6 -6 -6 -6 -6 -6 -6 -6 -6 -5 -5 -5 -5 -5
-8 -8 -8 -8 -7 -7 -6 -6 -6 -6 -6 -6 -6 -6 -6 -6 -7 -6 -6 -6 -6 -6 -5 -5 -5 -5 -5 -5 -5 -5 -6 -6 -6 -6 -6 -6 -6 -6 -6 -6 -6 -6 -6 -6 -6 -6 -6 -5 -5 -5 -5 -6 -6 -6 -6 -5 -6 -6 -6 -5 -5 -5 -5
-8 -8 -8 -8 -8 -7 -7 -7 -7 -6 -6 -6 -6 -6 -6 -6 -6 -6 -6 -6 -6 -6 -5 -5 -5 -5 -5 -5 -5 -5 -6 -6 -6 -6 -6 -6 -6 -6 -6 -6 -6 -6 -6 -6 -6 -6 -6 -5 -5 -5 -5 -5 -5 -5 -5 -5 -5 -5 -5 -5 -5 -5 -5
-8 -8 -8 -8 -8 -8 -7 -7 -7 -7 -6 -6 -6 -6 -6 -6 -6 -6 -6 -6 -6 -6 -6 -6 -5 -5 -5 -5 -5 -5 -5 -6 -6 -6 -6 -6 -6 -6 -6 -6 -6 -6 -6 -6 -6 -6 -6 -6 -5 -5 -5 -5 -5 -5 -5 -5 -5 -5 -5 -5 -5 -5 -5
-8 -8 -8 -8 -8 -8 -8 -7 -7 -7 -7 -6 -6 -6 -6 -6 -6 -6 -6 -6 -7 -7 -6 -6 -6 -6 -5 -5 -5 -5 -5 -5 -6 -6 -5 -6 -6 -6 -6 -6 -6 -6 -6 -6 -6 -6 -6 -6 -5 -5 -5 -5 -5 -5 -5 -5 -5 -5 -5 -5 -5 -5 -5
-8 -8 -8 -8 -8 -8 -8 -8 -7 -7 -7 -7 -6 -6 -6 -6 -6 -6 -6 -6 -6 -6 -6 -6 -6 -6 -6 -6 -5 -5 -5 -5 -5 -5 -5 -5 -6 -6 -6 -6 -6 -6 -6 -6 -6 -6 -6 -5 -5 -5 -5 -5 -5 -5 -5 -5 -5 -5 -5 -5 -5 -5 -5
-8 -8 -8 -8 -8 -8 -8 -8 -8 -7 -7 -7 -7 -7 -7 -7 -7 -7 -7 -7 -6 -6 -6 -6 -6 -6 -6 -6 -6 -5 -5 -5 -5 -5 -5 -5 -6 -6 -6 -6 -6 -6 -6 -6 -6 -6 -6 -6 -6 -6 -5 -5 -5 -5 -5 -5 -5 -5 -5 -5 -5 -5 -5
-8 -8 -8 -9 -8 -8 -8 -8 -8 -8 -7 -7 -7 -7 -7 -7 -7 -7 -7 -7 -7 -7 -7 -6 -6 -6 -6 -6 -6 -5 -5 -5 -5 -5 -5 -5 -5 -6 -6 -6 -6 -6 -6 -6 -6 -6 -6 -6 -6 -6 -6 -5 -5 -5 -5 -5 -5 -5 -5 -5 -5 -5 -5
-8 -8 -9 -9 -8 -8 -8 -8 -8 -8 -8 -7 -7 -7 -7 -7 -7 -7 -7 -7 -7 -7 -7 -7 -7 -6 -6 -6 -6 -5 -5 -5 -5 -5 -5 -5 -5 -5 -5 -6 -6 -6 -6 -6 -6 -6 -6 -6 -6 -6 -6 -5 -5 -5 -5 -5 -5 -5 -5 -5 -5 -5 -5
-8 -8 -8 -9 -9 -9 -9 -9 -9 -9 -8 -8 -8 -8 -8 -8 -7 -7 -7 -7 -7 -7 -7 -7 -7 -7 -7 -7 -6 -6 -6 -5 -5 -5 -5 -5 -5 -5 -5 -5 -5 -6 -6 -6 -6 -6 -6 -6 -6 -6 -6 -5 -5 -5 -5 -5 -5 -5 -5 -5 -5 -5 -5
-8 -8 -8 -9 -9 -9 -9 -9 -9 -9 -9 -9 -9 -9 -8 -8 -8 -7 -7 -7 -7 -7 -7 -7 -7 -7 -7 -7 -7 -7 -6 -6 -6 -5 -5 -5 -5 -5 -5 -5 -5 -5 -5 -5 -6 -6 -6 -6 -6 -6 -6 -5 -5 -5 -5 -5 -5 -5 -5 -5 -5 -5 -5
-9 -8 -8 -8 -9 -9 -9 -9 -9 -9 -9 -9 -9 -9 -9 -8 -8 -8 -8 -7 -7 -7 -7 -7 -7 -7 -7 -7 -7 -7 -7 -6 -6 -6 -6 -5 -5 -5 -5 -5 -5 -5 -5 -5 -5 -5 -5 -5 -5 -5 -5 -5 -5 -5 -5 -5 -6 -6 -6 -6 -5 -5 -5
-9 -9 -9 -9 -8 -9 -9 -9 -9 -9 -9 -9 -9 -9 -9 -9 -8 -8 -8 -8 -8 -7 -7 -7 -7 -7 -7 -7 -7 -7 -7 -6 -6 -6 -6 -6 -6 -5 -5 -5 -5 -5 -5 -5 -5 -5 -5 -5 -5 -5 -5 -5 -5 -5 -5 -5 -5 -6 -6 -5 -5 -5 -5
-9 -9 -9 -9 -9 -8 -9 -9 -9 -9 -9 -9 -9 -9 -9 -9 -9 -8 -8 -8 -8 -8 -7 -7 -7 -7 -7 -7 -7 -7 -7 -7 -6 -6 -6 -6 -6 -6 -5 -5 -5 -5 -5 -5 -5 -5 -5 -5 -5 -5 -5 -5 -5 -5 -5 -5 -5 -5 -5 -5 -5 -5 -5
-9 -9 -9 -9 -9 -9 -9 -9 -9 -9 -9 -9 -8 -8 -8 -8 -9 -8 -8 -8 -8 -8 -8 -7 -7 -7 -7 -7 -7 -7 -7 -7 -6 -6 -6 -6 -6 -6 -6 -5 -5 -5 -5 -5 -5 -5 -5 -5 -5 -5 -5 -5 -5 -5 -5 -5 -5 -5 -5 -5 -5 -5 -5
-9 -9 -9 -9 -9 -9 -9 -9 -9 -9 -9 -9 -9 -8 -8 -8 -8 -8 -8 -8 -8 -8 -8 -8 -7 -7 -7 -7 -7 -7 -7 -7 -6 -6 -6 -6 -6 -6 -6 -6 -5 -5 -5 -5 -5 -5 -5 -5 -5 -5 -5 -5 -5 -5 -5 -5 -5 -5 -5 -5 -5 -5 -5
-9 -9 -9 -9 -9 -9 -9 -9 -9 -9 -9 -9 -9 -8 -8 -8 -8 -8 -8 -8 -8 -9 -8 -8 -7 -7 -7 -7 -7 -7 -7 -7 -7 -7 -7 -6 -6 -6 -6 -6 -6 -6 -6 -5 -5 -5 -5 -5 -5 -5 -5 -5 -5 -5 -5 -5 -5 -5 -5 -5 -5 -5 -5
-10 -9 -9 -9 -9 -9 -9 -9 -9 -9 -8 -8 -8 -8 -8 -8 -8 -8 -8 -8 -8 -9 -9 -8 -8 -7 -7 -7 -7 -7 -7 -7 -7 -7 -7 -7 -6 -6 -6 -6 -5 -5 -5 -5 -5 -5 -5 -5 -5 -5 -5 -5 -5 -5 -5 -5 -5 -5 -5 -5 -5 -5 -5
-10 -10 -9 -9 -9 -9 -9 -9 -9 -9 -9 -9 -8 -8 -8 -8 -8 -8 -8 -8 -8 -8 -9 -9 -8 -8 -8 -8 -8 -8 -7 -7 -7 -7 -7 -7 -6 -6 -6 -6 -5 -5 -5 -5 -5 -5 -5 -5 -5 -5 -5 -5 -5 -5 -5 -5 -5 -5 -5 -5 -5 -5 -5
-11 -10 -10 -10 -9 -9 -9 -9 -9 -9 -9 -9 -9 -9 -9 -9 -8 -8 -8 -8 -8 -8 -8 -8 -9 -8 -8 -8 -8 -8 -7 -7 -7 -7 -7 -7 -7 -6 -6 -6 -6 -5 -5 -5 -5 -5 -5 -6 -6 -5 -5 -5 -5 -5 -5 -5 -5 -5 -5 -5 -5 -5 -5
-11 -11 -11 -10 -10 -10 -9 -9 -10 -10 -10 -10 -10 -9 -9 -9 -9 -9 -8 -8 -8 -8 -8 -8 -8 -9 -8 -8 -8 -8 -8 -7 -7 -7 -7 -7 -7 -7 -7 -6 -6 -6 -6 -6 -6 -6 -6 -6 -6 -6 -6 -6 -6 -5 -5 -5 -5 -5 -5 -6 -5 -5 -5
-11 -11 -11 -11 -11 -10 -10 -10 -10 -10 -10 -10 -10 -10 -10 -9 -9 -9 -9 -9 -8 -8 -8 -8 -8 -8 -8 -8 -8 -8 -8 -8 -7 -7 -7 -7 -7 -7 -7 -7 -7 -7 -7 -7 -7 -6 -6 -6 -6 -6 -6 -6 -6 -6 -5 -5 -6 -6 -6 -6 -6 -5 -5
-12 -11 -11 -11 -11 -11 -11 -10 -10 -10 -10 -10 -10 -10 -10 -10 -10 -10 -9 -9 -9 -9 -8 -8 -8 -8 -8 -8 -8 -8 -8 -8 -8 -8 -7 -7 -7 -7 -7 -7 -7 -7 -7 -7 -7 -7 -7 -6 -6 -6 -6 -6 -6 -6 -6 -6 -6 -6 -6 -6 -6 -6 -5
-13 -12 -11 -11 -11 -11 -11 -11 -11 -10 -10 -10 -10 -10 -10 -10 -10 -10 -10 -10 -9 -9 -9 -8 -8 -8 -8 -8 -8 -8 -8 -8 -8 -8 -8 -7 -7 -7 -7 -7 -7 -7 -7 -7 -7 -7 -7 -7 -7 -6 -6 -6 -6 -6 -6 -6 -6 -6 -6 -6 -6 -6 -5
-14 -13 -13 -12 -11 -11 -11 -12 -11 -11 -11 -10 -10 -10 -10 -10 -10 -10 -10 -10 -10 -10 -9 -9 -9 -9 -8 -8 -7 -7 -7 -7 -7 -8 -8 -8 -7 -8 -8 -8 -8 -8 -7 -7 -7 -7 -7 -7 -7 -7 -7 -7 -6 -6 -6 -6 -6 -6 -6 -6 -6 -5 -5
-14 -14 -13 -13 -12 -11 -11 -11 -11 -12 -11 -11 -11 -10 -10 -10 -10 -10 -10 -10 -10 -10 -10 -9 -9 -9 -9 -8 -8 -8 -8 -8 -7 -7 -8 -8 -8 -8 -8 -8 -8 -8 -8 -7 -7 -7 -7 -7 -7 -7 -7 -7 -6 -6 -6 -6 -6 -6 -6 -6 -5 -5 -5
-14 -14 -14 -13 -13 -12 -11 -11 -11 -11 -12 -11 -11 -11 -11 -11 -10 -11 -11 -10 -10 -10 -10 -10 -9 -9 -9 -9 -8 -8 -8 -8 -8 -8 -8 -8 -7 -8 -8 -8 -8 -8 -8 -7 -7 -6 -7 -7 -7 -7 -7 -7 -7 -6 -6 -6 -6 -6 -6 -6 -5 -5 -5
-14 -14 -14 -14 -13 -13 -12 -12 -11 -11 -11 -11 -11 -11 -11 -11 -11 -11 -11 -11 -11 -10 -10 -10 -10 -10 -9 -9 -9 -9 -9 -8 -8 -9 -8 -8 -8 -8 -8 -8 -8 -8 -8 -8 -7 -7 -7 -7 -7 -7 -7 -6 -6 -6 -6 -6 -6 -6 -6 -6 -6 -5 -5
-13 -13 -14 -14 -14 -13 -13 -13 -12 -12 -11 -11 -11 -11 -11 -11 -10 -11 -11 -11 -11 -11 -11 -10 -10 -10 -9 -9 -9 -9 -9 -9 -9 -9 -9 -8 -8 -8 -8 -8 -8 -8 -8 -8 -7 -7 -7 -7 -7 -7 -6 -6 -6 -6 -6 -6 -5 -6 -6 -5 -5 -5 -5
-14 -14 -14 -14 -13 -13 -13 -13 -13 -12 -12 -11 -11 -11 -11 -10 -10 -10 -10 -11 -11 -11 -11 -11 -11 -10 -10 -9 -9 -9 -9 -9 -9 -9 -9 -9 -8 -8 -8 -8 -8 -8 -8 -8 -7 -7 -7 -7 -7 -6 -6 -6 -6 -6 -6 -6 -6 -6 -6 -5 -5 -5 -5
-14 -14 -14 -14 -14 -13 -13 -13 -13 -13 -13 -12 -12 -11 -11 -10 -10 -10 -10 -10 -10 -11 -11 -11 -11 -11 -10 -10 -10 -9 -9 -9 -9 -9 -9 -9 -9 -8 -8 -8 -8 -8 -8 -8 -7 -7 -7 -7 -7 -7 -7 -6 -6 -6 -6 -6 -7 -7 -6 -5 -5 -5 -4
-15 -14 -14 -14 -14 -14 -13 -13 -13 -13 -13 -13 -12 -12 -11 -11 -10 -10 -10 -10 -10 -10 -10 -11 -11 -11 -11 -11 -10 -10 -10 -9 -9 -9 -9 -9 -9 -9 -9 -8 -8 -8 -8 -7 -7 -7 -7 -7 -7 -7 -7 -7 -7 -7 -7 -7 -7 -7 -7 -6 -6 -5 -4
-15 -15 -15 -15 -15 -14 -14 -14 -13 -13 -13 -12 -12 -12 -12 -12 -11 -11 -10 -10 -10 -10 -10 -10 -10 -11 -11 -11 -11 -10 -10 -10 -9 -9 -9 -9 -9 -9 -9 -9 -8 -8 -8 -8 -7 -7 -8 -7 -7 -7 -7 -7 -7 -7 -7 -7 -7 -7 -7 -7 -6 -5 -5
-16 -16 -16 -15 -15 -15 -15 -15 -14 -14 -13 -13 -12 -12 -12 -12 -12 -11 -11 -10 -10 -10 -10 -10 -10 -10 -11 -11 -11 -11 -11 -10 -10 -10 -10 -10 -10 -9 -9 -9 -9 -8 -8 -8 -8 -8 -8 -8 -7 -7 -7 -7 -7 -7 -7 -7 -7 -7 -7 -7 -6 -6 -5
Height
5903 5905 5906 5907 5909 5910 5911 5913 5914 5916 5918 5919 5920 5921 5922 5923 5924 5925 5927 5929 5930 5932 5933 5935 5936 5938 5939 5941 5943 5945 5946 5946 5947 5949 5950 5951 5952 5953 5953 5954 5956 5957 5958 5959 5959 5960 5960 5961 5962 5962 5963 5964 5965 5965 5966 5967 5968 5968 5969 5970 5970 5971 5971
5902 5904 5905 5906 5907 5908 5909 5910 5912 5913 5915 5917 5919 5920 5921 5922 5923 5924 5925 5926 5928 5930 5932 5934 5935 5936 5938 5940 5942 5944 5945 5946 5947 5948 5949 5951 5951 5952 5953 5954 5955 5956 5957 5958 5959 5960 5960 5961 5962 5963 5963 5964 5965 5965 5966 5967 5968 5968 5969 5970 5970 5971 5971
5900 5902 5904 5905 5906 5907 5908 5909 5910 5911 5913 5915 5916 5918 5919 5921 5921 5922 5923 5924 5926 5928 5930 5932 5934 5935 5937 5939 5941 5943 5944 5945 5946 5947 5949 5950 5951 5952 5953 5954 5954 5955 5956 5957 5958 5959 5960 5961 5962 5963 5963 5964 5964 5965 5966 5967 5968 5968 5969 5969 5970 5971 5971
5899 5900 5902 5903 5903 5905 5906 5908 5909 5910 5912 5914 5915 5915 5917 5918 5919 5920 5921 5922 5923 5925 5927 5929 5931 5933 5935 5937 5939 5941 5943 5944 5945 5946 5947 5949 5950 5951 5952 5953 5954 5954 5955 5956 5957 5958 5959 5960 5962 5963 5963 5964 5964 5965 5966 5967 5967 5968 5969 5969 5970 5970 5971
5897 5898 5900 5901 5902 5903 5905 5906 5908 5909 5911 5912 5914 5915 5915 5916 5917 5918 5920 5921 5922 5923 5924 5926 5928 5930 5933 5935 5937 5939 5941 5942 5944 5945 5946 5948 5949 5950 5951 5952 5953 5953 5954 5955 5956 5958 5959 5960 5961 5962 5963 5964 5964 5965 5966 5967 5967 5968 5969 5969 5970 5970 5971
5895 5896 5898 5899 5901 5902 5903 5904 5906 5908 5909 5910 5911 5913 5914 5915 5916 5917 5919 5920 5921 5922 5922 5924 5926 5928 5930 5932 5934 5936 5938 5940 5942 5943 5945 5946 5947 5948 5949 5951 5952 5953 5954 5954 5956 5957 5958 5959 5960 5962 5963 5964 5964 5965 5965 5966 5967 5968 5969 5969 5970 5970 5971
5893 5895 5897 5898 5899 5900 5901 5903 5905 5906 5907 5908 5909 5910 5912 5913 5914 5916 5918 5919 5921 5922 5923 5924 5925 5926 5928 5930 5932 5934 5936 5938 5939 5941 5943 5944 5946 5947 5948 5949 5951 5952 5953 5954 5955 5956 5957 5959 5960 5961 5962 5963 5964 5964 5965 5966 5967 5968 5968 5969 5970 5970 5971
5891 5893 5894 5896 5897 5898 5899 5901 5904 5904 5905 5907 5908 5908 5909 5911 5913 5915 5917 5918 5920 5922 5924 5925 5926 5927 5928 5929 5930 5932 5933 5935 5937 5939 5941 5942 5944 5945 5946 5948 5949 5951 5952 5953 5954 5955 5956 5958 5959 5960 5961 5962 5963 5964 5964 5965 5966 5967 5968 5969 5969 5970 5971
5889 5891 5892 5894 5895 5897 5898 5899 5901 5902 5903 5905 5906 5907 5908 5909 5912 5914 5915 5917 5919 5921 5922 5924 5926 5927 5929 5930 5931 5931 5932 5933 5935 5936 5938 5940 5942 5943 5944 5946 5947 5949 5951 5952 5953 5954 5955 5957 5958 5959 5960 5961 5962 5963 5963 5964 5965 5966 5966 5967 5968 5969 5970
5887 5889 5890 5892 5893 5895 5896 5897 5899 5900 5901 5902 5903 5905 5907 5909 5911 5913 5914 5916 5917 5918 5919 5921 5923 5925 5927 5929 5931 5931 5932 5933 5933 5934 5936 5938 5940 5941 5942 5944 5945 5947 5949 5950 5952 5953 5954 5955 5957 5958 5959 5960 5961 5962 5962 5963 5964 5965 5965 5966 5967 5968 5969
5885 5886 5888 5890 5891 5892 5894 5895 5896 5897 5898 5900 5901 5902 5905 5907 5909 5911 5913 5914 5915 5916 5916 5918 5920 5922 5924 5926 5928 5930 5932 5933 5933 5934 5935 5936 5937 5938 5940 5941 5943 5945 5946 5948 5949 5950 5952 5953 5955 5956 5957 5958 5959 5960 5961 5962 5963 5964 5964 5965 5966 5967 5968
5882 5884 5886 5887 5888 5890 5891 5893 5894 5894 5896 5897 5898 5899 5901 5904 5905 5908 5910 5912 5913 5914 5915 5917 5918 5919 5921 5923 5925 5928 5930 5932 5933 5933 5933 5934 5935 5936 5937 5939 5941 5943 5944 5945 5947 5948 5949 5951 5952 5954 5955 5956 5957 5958 5959 5961 5962 5963 5963 5964 5965 5965 5966
5878 5880 5882 5884 5885 5887 5888 5890 5891 5892 5893 5894 5895 5897 5899 5900 5903 5905 5907 5908 5909 5911 5913 5915 5916 5918 5919 5921 5923 5925 5927 5929 5931 5932 5932 5932 5933 5934 5936 5937 5939 5940 5941 5943 5944 5945 5947 5948 5950 5952 5953 5954 5955 5956 5958 5959 5960 5961 5962 5963 5964 5964 5965
5874 5876 5878 5880 5882 5884 5885 5887 5888 5889 5890 5891 5893 5895 5896 5898 5900 5902 5904 5905 5906 5908 5910 5911 5913 5915 5917 5919 5921 5923 5924 5926 5928 5929 5930 5931 5931 5933 5934 5936 5937 5938 5939 5941 5942 5943 5945 5946 5947 5949 5950 5952 5953 5954 5956 5957 5959 5960 5961 5962 5963 5963 5964
5869 5872 5874 5876 5879 5880 5882 5883 5885 5887 5888 5889 5891 5892 5894 5896 5897 5899 5900 5902 5904 5906 5908 5909 5910 5912 5914 5916 5919 5920 5921 5923 5924 5926 5927 5928 5930 5931 5932 5934 5935 5937 5938 5940 5941 5942 5943 5944 5945 5947 5948 5950 5951 5952 5954 5955 5957 5958 5959 5960 5961 5961 5962
5864 5867 5869 5872 5874 5876 5878 5879 5881 5884 5886 5887 5889 5890 5891 5893 5895 5896 5897 5899 5901 5903 5905 5906 5908 5909 5911 5914 5916 5916 5918 5919 5921 5923 5924 5925 5927 5928 5930 5931 5933 5935 5937 5938 5939 5940 5941 5942 5943 5945 5946 5947 5949 5950 5951 5953 5955 5956 5957 5957 5958 5959 5960
5859 5862 5864 5867 5869 5872 5873 5875 5877 5880 5882 5884 5886 5887 5889 5890 5892 5893 5895 5896 5897 5899 5901 5903 5905 5907 5909 5911 5912 5913 5915 5916 5918 5919 5920 5922 5924 5925 5927 5928 5930 5932 5934 5936 5937 5938 5939 5941 5942 5943 5944 5945 5947 5948 5949 5951 5953 5954 5954 5955 5956 5957 5957
5855 5857 5860 5862 5864 5867 5869 5870 5872 5875 5877 5879 5882 5884 5885 5887 5889 5890 5892 5893 5894 5896 5897 5900 5901 5903 5905 5906 5907 5909 5911 5913 5914 5916 5917 5919 5920 5922 5924 5925 5927 5930 5932 5933 5934 5936 5937 5939 5940 5941 5942 5943 5945 5946 5947 5949 5950 5951 5952 5952 5953 5954 5955
5850 5853 5855 5858 5860 5862 5864 5866 5868 5870 5872 5875 5877 5879 5882 5884 5885 5887 5889 5890 5891 5892 5894 5896 5898 5899 5900 5901 5902 5904 5906 5908 5910 5912 5914 5915 5917 5918 5920 5922 5924 5927 5928 5930 5931 5932 5935 5936 5938 5940 5941 5942 5943 5945 5946 5947 5948 5949 5950 5950 5951 5952 5952
5845 5848 5850 5853 5855 5857 5859 5861 5863 5865 5868 5870 5872 5875 5877 5879 5881 5883 5885 5886 5887 5889 5890 5892 5893 5894 5895 5897 5900 5902 5904 5905 5907 5909 5910 5912 5914 5915 5916 5918 5920 5922 5924 5926 5927 5929 5931 5933 5935 5937 5939 5940 5942 5943 5944 5945 5946 5947 5948 5948 5949 5950 5950
5839 5842 5845 5847 5850 5853 5854 5856 5858 5861 5863 5865 5867 5870 5872 5874 5877 5879 5881 5883 5884 5885 5886 5887 5887 5889 5892 5896 5898 5900 5902 5903 5904 5905 5907 5909 5911 5912 5913 5914 5916 5917 5919 5921 5923 5925 5927 5929 5931 5933 5935 5937 5939 5941 5942 5944 5945 5945 5946 5946 5947 5948 5948
5833 5836 5839 5842 5844 5847 5849 5851 5853 5855 5858 5860 5862 5864 5867 5869 5872 5874 5876 5878 5880 5881 5882 5882 5882 5884 5889 5893 5895 5896 5898 5899 5900 5902 5904 5905 5907 5909 5910 5911 5912 5912 5913 5915 5918 5920 5923 5925 5927 5929 5931 5933 5935 5937 5939 5941 5942 5943 5943 5944 5944 5945 5946
5827 5829 5832 5836 5838 5841 5844 5846 5848 5850 5852 5855 5857 5859 5862 5864 5867 5869 5871 5873 5876 5878 5879 5880 5880 5881 5884 5888 5890 5892 5893 5894 5896 5898 5900 5901 5903 5904 5906 5906 5907 5907 5908 5910 5912 5915 5919 5921 5923 5925 5927 5929 5930 5933 5935 5937 5939 5940 5941 5941 5941 5942 5943
5821 5823 5826 5829 5832 5835 5838 5840 5843 5845 5847 5849 5852 5854 5856 5859 5861 5863 5865 5867 5870 5873 5875 5877 5878 5878 5880 5883 5885 5887 5889 5890 5892 5895 5896 5897 5898 5899 5901 5901 5902 5904 5904 5906 5908 5911 5914 5917 5919 5921 5923 5925 5926 5928 5930 5933 5935 5936 5937 5938 5938 5939 5941
5816 5818 5820 5823 5826 5829 5832 5834 5837 5839 5841 5844 5846 5848 5851 5853 5856 5858 5860 5861 5864 5867 5870 5872 5874 5875 5876 5878 5881 5883 5884 5886 5889 5891 5892 5893 5894 5895 5895 5897 5899 5902 5903 5904 5905 5907 5910 5912 5914 5916 5918 5920 5922 5924 5926 5928 5930 5932 5933 5934 5934 5935 5937
5811 5813 5814 5817 5819 5822 5825 5828 5830 5833 5836 5838 5840 5842 5845 5847 5849 5852 5854 5856 5859 5861 5863 5866 5869 5871 5872 5874 5876 5878 5880 5882 5884 5886 5887 5888 5889 5890 5891 5892 5896 5899 5901 5902 5902 5903 5905 5907 5909 5911 5913 5915 5917 5919 5921 5924 5926 5927 5929 5929 5930 5931 5932
5805 5807 5808 5811 5813 5816 5818 5821 5824 5826 5829 5832 5834 5836 5839 5841 5843 5845 5848 5850 5853 5855 5857 5860 5863 5866 5868 5869 5871 5874 5876 5878 5879 5881 5882 5883 5885 5886 5887 5889 5893 5895 5896 5897 5898 5900 5902 5903 5904 5906 5908 5910 5911 5913 5916 5918 5921 5922 5924 5925 5925 5927 5928
5799 5801 5802 5804 5806 5809 5812 5814 5817 5819 5822 5824 5827 5830 5832 5835 5836 5839 5841 5844 5847 5849 5852 5854 5857 5859 5862 5864 5866 5868 5871 5873 5874 5876 5877 5879 5881 5883 5884 5886 5888 5889 5890 5891 5894 5896 5899 5900 5901 5902 5905 5906 5907 5909 5911 5913 5915 5917 5918 5920 5921 5922 5923
5793 5795 5797 5798 5799 5801 5804 5807 5810 5812 5814 5817 5820 5822 5825 5828 5830 5832 5834 5837 5840 5843 5845 5848 5851 5853 5856 5858 5860 5862 5864 5866 5868 5870 5872 5874 5876 5878 5879 5881 5883 5883 5884 5886 5889 5892 5894 5896 5897 5899 5901 5903 5904 5905 5907 5909 5910 5911 5913 5914 5915 5916 5918
5785 5788 5790 5792 5793 5795 5797 5800 5802 5805 5807 5809 5812 5814 5817 5820 5823 5825 5827 5829 5832 5835 5838 5842 5844 5847 5849 5852 5854 5856 5857 5859 5862 5864 5866 5869 5870 5872 5874 5875 5877 5879 5879 5881 5883 5886 5888 5890 5892 5894 5897 5899 5900 5901 5902 5903 5905 5907 5907 5909 5910 5911 5912
5777 5780 5782 5785 5787 5788 5790 5792 5795 5797 5799 5801 5804 5806 5809 5812 5815 5818 5820 5822 5824 5827 5831 5834 5837 5840 5843 5845 5847 5849 5851 5853 5855 5857 5859 5862 5864 5866 5868 5869 5872 5874 5875 5875 5877 5880 5882 5885 5887 5889 5892 5894 5896 5897 5897 5898 5900 5901 5902 5903 5904 5905 5907
5769 5771 5774 5777 5779 5781 5783 5785 5787 5789 5791 5793 5795 5798 5800 5803 5806 5809 5812 5814 5817 5819 5822 5826 5829 5833 5836 5838 5841 5843 5844 5846 5848 5850 5853 5855 5857 5859 5861 5863 5866 5869 5870 5870 5872 5874 5877 5879 5881 5883 5886 5888 5890 5892 5892 5892 5893 5895 5896 5898 5899 5900 5902
5762 5764 5766 5768 5770 5773 5775 5777 5780 5782 5783 5785 5786 5788 5792 5795 5797 5800 5803 5806 5809 5811 5814 5818 5821 5824 5828 5831 5833 5836 5838 5839 5842 5844 5846 5847 5849 5852 5855 5857 5860 5862 5864 5865 5867 5869 5871 5873 5875 5877 5879 5882 5883 5883 5882 5883 5886 5889 5890 5891 5892 5893 5894
5754 5756 5758 5760 5762 5764 5766 5769 5772 5774 5776 5778 5778 5780 5783 5786 5789 5792 5794 5798 5800 5803 5806 5810 5813 5816 5819 5822 5826 5829 5831 5833 5835 5837 5839 5841 5842 5845 5848 5851 5853 5856 5858 5860 5861 5864 5866 5867 5870 5872 5873 5874 5874 5873 5874 5879 5884 5885 5885 5883 5883 5884 5886
5747 5748 5749 5751 5753 5755 5757 5760 5763 5765 5768 5770 5771 5772 5774 5777 5781 5783 5786 5789 5792 5795 5798 5802 5805 5808 5810 5813 5817 5820 5824 5826 5828 5830 5832 5834 5836 5839 5842 5845 5847 5850 5853 5855 5856 5858 5860 5862 5864 5867 5867 5865 5864 5865 5871 5878 5880 5879 5878 5878 5879 5879 5880
5739 5741 5741 5743 5744 5746 5748 5750 5753 5756 5759 5762 5763 5765 5766 5768 5772 5775 5777 5779 5782 5785 5790 5794 5797 5800 5803 5805 5808 5811 5815 5819 5821 5822 5824 5827 5829 5832 5835 5838 5840 5843 5847 5850 5850 5852 5854 5856 5859 5860 5861 5860 5860 5862 5868 5872 5872 5872 5874 5877 5878 5876 5875
5733 5734 5734 5735 5736 5737 5739 5741 5743 5746 5749 5752 5754 5757 5759 5760 5763 5766 5768 5770 5772 5775 5779 5784 5789 5792 5795 5797 5800 5802 5806 5809 5813 5815 5817 5819 5822 5825 5828 5831 5833 5835 5839 5842 5844 5845 5848 5850 5853 5854 5854 5855 5857 5859 5862 5864 5865 5866 5869 5871 5871 5870 5870
5727 5728 5728 5728 5729 5730 5731 5732 5734 5737 5739 5741 5744 5748 5750 5752 5754 5756 5758 5761 5763 5765 5768 5773 5779 5783 5787 5789 5792 5795 5798 5801 5804 5807 5809 5811 5814 5817 5820 5824 5827 5828 5831 5834 5836 5838 5841 5844 5847 5848 5848 5849 5852 5854 5856 5858 5859 5860 5862 5864 5864 5864 5865
Wind_Speed
29 28 28 27 25 24 23 22 22 22 20 18 17 16 15 16 18 20 20 20 21 23 25 27 27 25 22 20 18 18 19 20 20 19 19 19 19 19 17 16 15 14 13 13 13 12 12 11 11 12 12 12 11 11 11 11 11 10 10 10 10 9 9
29 29 29 29 27 25 24 24 24 24 23 22 20 18 16 16 18 21 22 22 22 23 25 28 28 26 24 21 19 19 20 20 20 20 20 20 20 19 19 17 16 15 14 13 13 12 11 11 11 11 12 11 11 10 10 10 10 10 10 9 9 8 8
29 29 29 29 29 28 27 25 25 26 25 25 24 22 20 18 19 21 24 24 24 24 25 27 29 28 25 23 21 20 20 21 21 21 21 21 21 20 20 18 17 16 15 15 14 13 13 12 11 12 12 11 11 11 10 10 10 10 9 9 8 8 8
30 31 30 30 30 29 28 27 26 26 26 26 26 25 24 23 22 23 25 27 27 26 27 28 30 29 27 25 23 22 22 22 22 22 23 23 22 21 20 19 18 17 17 16 15 15 14 13 13 13 13 12 12 11 10 10 10 10 9 9 8 8 8
31 32 32 32 31 30 29 28 27 27 27 27 27 27 27 26 25 25 25 27 28 29 29 30 31 31 29 27 26 24 24 24 24 23 24 24 23 22 21 20 19 19 18 17 16 16 15 14 14 14 13 13 13 12 11 11 11 11 10 10 9 9 9
33 33 32 31 31 31 31 29 28 27 27 28 29 29 29 28 27 25 25 26 28 30 30 31 32 32 31 30 28 27 26 26 25 24 24 24 24 24 23 21 21 20 19 18 17 16 16 15 15 15 14 14 14 13 13 12 12 12 11 11 10 10 9
33 33 32 31 30 31 31 30 29 29 29 30 31 30 30 29 28 27 25 24 26 29 30 31 31 32 32 32 30 29 28 27 27 26 25 25 25 25 24 23 22 21 20 19 19 17 17 16 15 15 15 14 14 14 14 13 12 12 12 12 11 11 10
34 32 31 30 30 30 31 31 30 30 30 30 29 29 30 30 29 27 25 25 24 24 26 28 29 30 31 32 32 31 30 29 29 28 27 26 26 26 25 25 24 23 22 21 20 19 18 17 16 16 15 15 15 14 14 14 13 13 12 12 12 12 11
34 32 31 30 30 30 31 30 30 31 31 30 29 30 31 31 29 28 27 26 24 23 24 26 27 29 30 30 31 32 31 31 30 29 28 27 27 27 27 27 26 25 24 23 22 21 20 18 17 17 16 16 16 15 15 15 14 13 13 12 13 13 12
34 32 31 30 30 31 31 30 30 32 32 30 30 31 31 31 30 29 29 28 27 26 26 26 27 28 29 30 31 32 31 31 31 30 30 29 28 28 28 28 28 27 26 25 24 23 22 20 19 18 17 17 17 17 16 16 16 15 13 13 13 14 13
35 33 31 31 31 32 31 30 31 32 32 31 30 30 31 32 32 31 31 29 29 28 28 27 27 28 29 30 32 32 32 32 32 31 31 30 30 30 31 30 29 29 28 27 26 25 24 23 21 20 19 18 18 18 18 17 17 16 15 14 14 15 15
37 35 33 32 32 32 32 31 31 31 31 30 30 31 31 31 32 33 33 32 31 30 30 28 27 27 28 30 32 33 33 33 33 32 32 32 32 32 32 32 31 30 30 29 28 28 27 25 23 22 21 21 21 20 19 19 18 17 16 15 15 15 16
39 37 36 35 34 33 33 33 32 31 29 28 28 30 31 31 31 31 33 35 35 33 31 30 28 27 26 27 29 32 34 35 34 34 34 33 34 34 34 33 33 32 32 31 30 30 29 27 26 24 24 23 23 22 21 20 19 18 17 16 15 16 17
41 39 39 38 36 35 35 34 32 31 30 28 26 27 29 31 32 31 32 34 36 35 33 31 30 28 27 27 27 28 32 35 37 36 35 35 35 35 34 34 34 34 33 32 31 31 31 29 28 27 26 25 24 24 23 22 21 20 19 17 16 17 18
43 42 41 41 39 38 37 36 34 31 30 29 27 27 27 29 32 33 33 33 34 34 33 32 31 31 31 30 29 29 30 33 36 37 37 37 36 36 35 35 34 34 34 33 32 32 32 31 30 29 28 27 26 25 25 24 23 21 21 20 19 19 19
44 43 43 43 43 41 40 38 37 35 33 31 30 29 29 30 31 33 34 34 33 33 34 33 33 33 33 32 32 32 31 31 33 36 38 39 38 38 37 36 35 34 34 33 33 33 33 32 31 31 30 29 28 27 26 26 25 24 23 23 22 21 21
46 45 45 45 46 45 43 41 40 40 38 36 34 32 32 32 32 32 34 35 35 34 35 35 34 35 35 34 35 35 34 32 32 33 36 39 40 40 39 38 36 35 34 34 34 34 34 33 32 32 31 30 29 29 28 27 27 26 27 27 25 24 23
46 46 46 46 47 48 46 45 44 44 44 42 40 38 36 35 35 34 34 35 37 37 36 35 35 36 36 37 38 37 36 34 33 32 32 36 39 41 41 40 39 37 35 35 35 35 34 34 33 33 32 31 31 30 30 29 28 29 29 29 28 27 26
46 47 47 46 48 49 49 49 47 47 47 46 45 42 40 38 39 38 37 37 37 38 38 36 36 38 39 40 40 40 38 36 34 32 31 32 35 38 41 41 41 40 39 38 37 36 35 34 34 33 33 32 32 31 30 30 30 30 31 31 30 30 29
46 47 47 47 48 49 50 51 51 50 49 49 48 46 44 42 42 41 40 39 38 38 39 39 39 41 42 42 40 39 38 36 34 32 31 31 32 34 37 39 40 41 41 41 40 38 37 36 35 34 33 33 32 32 31 31 31 31 32 32 32 32 31
47 48 48 48 48 48 50 51 52 52 52 52 52 50 48 46 45 45 44 42 41 40 41 43 43 42 40 39 38 37 36 36 36 35 33 31 31 32 34 36 39 40 41 41 42 41 40 39 38 36 34 33 33 32 32 32 31 32 32 33 33 33 33
48 49 49 48 48 48 49 50 51 52 53 53 53 52 51 49 48 48 48 47 45 43 43 44 45 43 39 37 37 37 37 38 38 37 35 34 33 33 33 34 36 39 40 41 41 41 40 40 40 38 36 35 34 33 33 33 32 32 33 33 34 34 33
49 50 50 49 49 49 49 49 50 51 52 52 52 51 51 50 49 50 51 51 49 47 45 45 45 45 43 40 38 38 39 39 39 37 36 36 35 35 34 34 35 37 39 40 40 40 39 39 40 40 38 37 36 34 33 33 33 33 33 34 35 34 33
50 50 50 50 50 50 49 49 49 49 50 50 50 50 48 48 48 49 51 53 53 51 49 47 46 47 47 45 42 41 40 39 38 38 38 38 38 38 37 37 37 37 38 38 38 38 38 39 39 40 39 39 38 37 35 34 34 34 34 35 35 35 33
53 51 51 51 51 51 51 50 50 50 49 48 49 50 48 47 47 48 48 51 54 55 54 51 49 48 49 48 45 43 43 41 39 39 40 40 40 41 41 40 39 38 37 36 36 37 37 38 39 40 39 39 40 40 38 36 36 35 35 35 36 35 35
55 54 53 52 52 52 52 52 52 51 51 50 48 49 50 49 49 48 48 49 51 54 56 55 53 52 51 50 49 46 44 43 42 41 41 41 42 43 44 43 41 39 37 37 36 36 36 38 39 39 39 40 40 41 40 38 37 37 36 37 37 37 36
54 56 56 54 53 52 52 53 53 53 53 52 51 50 50 50 50 50 50 50 50 51 54 55 55 54 52 52 51 50 47 45 45 44 43 43 43 44 45 44 42 40 40 39 39 38 37 37 39 39 40 41 41 41 41 40 39 39 39 39 39 39 38
54 56 58 58 57 55 54 54 54 54 54 54 53 52 51 51 51 51 51 51 51 51 52 53 54 54 55 53 52 53 53 51 49 47 46 46 46 45 45 45 43 43 43 43 41 40 38 38 39 40 40 41 41 41 41 40 40 41 40 41 41 41 40
56 57 59 60 61 60 59 57 56 56 56 55 55 55 54 53 53 53 52 52 51 52 53 53 53 53 55 55 52 51 53 55 55 53 51 49 48 48 48 47 45 45 45 45 44 43 41 40 41 41 41 41 41 40 41 41 42 41 42 42 43 43 42
57 58 59 61 62 63 63 62 60 59 59 58 58 58 57 56 55 55 55 54 53 53 53 54 55 54 54 55 55 52 50 51 53 55 55 53 51 50 50 50 49 47 46 46 46 46 45 44 44 44 42 42 41 40 40 41 41 41 42 43 43 44 44
54 56 57 59 61 63 65 66 65 64 63 62 62 61 61 60 58 57 57 57 56 56 56 55 56 56 56 56 57 57 54 51 50 50 52 54 54 53 52 52 51 49 49 49 49 47 47 47 48 47 45 43 42 41 41 41 40 41 42 43 44 44 44
53 54 55 56 58 60 63 65 67 68 67 67 66 66 65 64 63 61 60 59 59 59 59 58 58 58 58 58 58 59 59 57 54 52 51 52 52 53 53 53 52 51 52 52 51 49 48 48 48 48 47 46 45 43 43 43 41 40 42 43 44 44 44
56 56 56 56 57 58 60 62 65 67 69 70 70 70 70 69 68 67 65 63 62 61 61 61 61 60 60 60 60 59 60 60 58 56 55 54 53 52 52 52 51 51 52 53 52 51 49 47 46 46 45 46 48 49 48 46 43 41 41 42 42 43 45
59 59 59 60 59 59 60 60 61 64 67 69 72 73 74 73 72 72 71 69 67 66 64 63 63 63 63 63 61 61 61 61 60 59 58 58 57 55 53 52 51 51 51 52 52 51 50 47 44 44 44 45 49 53 52 46 42 42 42 43 43 44 45
61 61 62 62 63 63 63 63 63 63 64 66 69 72 75 76 75 76 75 74 73 71 70 67 65 64 65 65 65 63 62 62 62 62 60 59 59 57 54 53 53 52 51 51 52 51 50 48 44 42 42 42 46 52 51 44 42 45 45 42 42 44 44
57 59 60 62 63 65 66 66 67 66 65 66 67 69 72 75 77 78 78 79 78 76 74 72 70 67 66 66 67 66 65 64 64 64 63 62 60 59 56 54 54 52 50 50 51 50 50 49 47 45 43 39 39 44 47 46 45 44 40 37 37 39 40
51 53 55 57 60 62 64 66 68 69 69 69 69 69 70 73 75 78 79 81 82 81 79 77 75 72 70 68 67 67 67 66 65 65 65 64 63 62 60 56 54 52 49 49 51 51 50 49 48 49 49 44 40 39 42 46 47 43 39 38 39 38 38
46 48 50 52 54 56 59 62 65 68 70 71 72 72 72 72 73 76 78 80 83 84 84 82 79 77 75 73 70 69 68 68 67 66 66 66 65 64 63 60 58 56 52 49 49 51 51 49 47 48 50 49 45 41 38 42 46 46 43 42 42 40 38
Wind_Direction
212 213 213 212 211 209 206 207 210 210 209 202 198 199 199 199 198 194 195 199 199 198 198 198 198 199 201 200 195 189 191 197 199 195 192 191 189 188 188 189 189 188 187 190 195 194 189 187 187 188 188 187 188 187 188 189 190 192 192 190 188 187 186
213 213 214 214 215 214 210 209 209 209 207 203 200 199 199 202 202 196 195 198 201 200 200 201 201 200 201 199 196 193 194 200 201 197 195 194 192 191 190 189 188 187 188 193 197 198 196 197 199 199 197 196 195 194 195 196 197 198 198 197 195 194 194
216 215 214 213 214 216 215 213 210 208 206 204 200 197 197 202 205 201 198 198 200 201 202 203 204 203 201 198 196 195 197 202 204 200 198 197 195 194 192 191 189 188 191 197 201 202 202 204 208 210 207 206 205 204 205 206 207 209 207 206 205 205 207
217 217 216 216 216 216 218 217 213 210 209 207 205 200 197 201 207 206 201 199 200 201 202 203 205 205 203 200 197 196 198 204 206 204 202 200 198 198 196 193 192 193 196 201 205 207 207 207 211 215 215 215 214 214 216 217 218 220 219 217 215 214 217
218 218 219 221 221 219 220 220 217 214 211 210 210 206 203 203 208 210 207 204 203 203 204 204 205 205 205 202 199 197 199 205 208 207 206 204 202 202 201 198 195 196 199 204 208 210 212 212 212 217 220 221 222 223 225 226 227 228 228 226 224 222 222
218 219 219 221 223 223 223 223 220 218 215 213 212 211 211 209 209 213 214 210 208 208 208 208 207 206 206 205 202 199 199 204 209 210 208 208 207 206 206 204 201 200 202 206 209 212 215 217 217 219 222 225 227 229 230 232 232 233 235 234 231 228 227
219 222 221 221 223 225 226 225 224 223 220 217 214 215 216 215 213 214 216 216 215 214 215 214 211 210 209 207 205 203 202 204 208 211 210 209 210 210 211 211 209 207 207 209 212 214 217 219 221 223 225 227 230 232 234 235 235 236 237 237 235 233 231
218 223 224 223 223 225 226 227 226 226 225 222 221 221 221 220 219 216 217 219 220 220 221 221 220 218 216 213 209 206 205 206 209 212 211 210 211 212 213 214 214 213 213 215 216 217 218 220 222 225 228 229 231 232 234 234 236 237 237 238 237 236 234
218 222 224 224 224 224 225 226 227 228 227 224 225 226 224 224 223 220 218 218 219 221 222 224 225 225 224 222 218 214 210 209 211 213 213 212 212 213 215 216 216 215 215 218 219 221 221 221 222 225 228 231 232 232 231 232 234 237 239 239 237 235 234
218 221 222 222 223 223 223 224 226 229 230 226 225 226 225 224 224 224 223 220 219 220 221 222 224 226 226 227 227 224 220 215 214 215 216 215 213 214 216 217 217 216 216 217 220 222 224 223 223 224 227 230 232 233 230 229 230 234 238 240 237 234 231
218 220 219 219 220 221 222 224 226 230 232 229 226 227 226 223 222 222 224 224 223 222 223 223 222 223 225 227 229 230 228 224 221 219 219 218 216 216 217 218 218 218 218 217 218 221 223 223 223 223 224 226 229 231 231 229 229 230 235 238 237 234 230
218 220 218 217 218 219 221 224 226 229 232 230 227 229 231 228 225 222 221 224 225 225 225 226 224 223 224 226 229 231 231 230 228 225 223 222 221 219 218 218 219 220 220 219 218 220 222 222 222 221 222 224 225 227 229 230 230 231 233 236 236 235 231
217 219 218 218 218 219 220 224 226 228 231 230 228 232 235 235 233 228 223 222 224 224 225 227 229 229 229 230 232 233 233 232 231 229 228 227 226 224 221 220 220 221 221 220 219 220 221 221 221 219 220 222 223 224 225 227 230 232 234 236 238 237 235
218 219 219 219 220 220 221 223 226 229 231 231 228 232 238 239 240 238 231 226 225 225 224 226 229 231 233 235 238 238 236 234 233 232 231 231 231 230 227 225 224 224 223 223 221 221 222 221 220 219 219 220 222 222 223 224 226 231 234 236 237 239 238
218 219 219 219 221 222 222 222 224 228 231 233 232 232 237 241 243 243 240 235 231 227 226 228 229 230 233 236 239 242 239 237 235 234 234 234 234 234 233 231 229 229 228 227 225 225 225 223 222 220 219 220 221 222 221 221 222 226 232 235 236 238 239
219 220 219 219 220 222 224 221 221 224 228 231 233 234 237 240 243 245 247 246 240 232 228 228 229 231 233 235 237 239 240 239 238 237 235 235 235 236 237 236 234 233 233 232 231 230 229 228 226 225 223 221 221 222 222 220 220 222 227 231 233 236 238
221 220 220 219 219 221 223 223 221 223 226 227 231 235 238 240 241 244 248 250 248 241 234 231 230 231 232 233 235 238 240 241 242 242 239 237 236 236 237 238 238 237 236 236 236 236 234 232 231 230 228 226 224 224 224 222 221 222 225 229 231 233 236
222 223 222 221 221 221 223 223 223 224 227 228 229 234 238 241 240 241 245 248 249 248 243 236 234 234 233 232 233 235 237 239 242 244 244 241 239 237 238 239 240 240 240 240 240 240 240 238 237 235 233 231 229 228 227 225 224 224 227 229 230 232 235
224 225 225 224 224 223 224 225 225 226 228 229 230 232 236 240 240 239 242 245 247 248 246 241 237 237 235 234 234 234 234 237 239 242 246 245 243 240 239 240 241 241 242 242 242 243 243 243 243 241 240 238 235 233 231 229 228 228 230 232 233 234 235
228 227 227 227 227 227 227 227 228 228 229 231 232 232 234 238 239 239 240 243 245 246 245 242 239 239 238 238 239 237 236 238 239 240 244 247 248 245 242 241 241 242 242 243 244 245 245 245 245 244 244 244 242 240 237 234 232 232 234 235 236 237 238
233 231 230 230 230 230 230 230 231 231 231 233 234 235 236 236 238 238 237 239 242 245 246 244 242 243 244 244 244 243 241 240 241 241 243 246 249 250 246 243 242 242 242 243 244 245 245 246 245 245 244 245 245 244 242 240 238 236 237 238 239 240 241
236 234 233 232 232 233 233 234 234 234 235 235 237 238 239 237 237 238 237 236 238 241 245 247 247 249 250 249 247 245 242 241 240 241 243 246 248 250 250 247 244 243 242 242 243 244 244 245 247 246 245 245 245 244 245 244 243 242 241 241 242 243 244
238 237 236 234 234 234 234 234 236 237 237 238 238 240 241 240 239 239 237 236 235 237 240 245 250 251 251 250 248 247 245 243 241 241 243 246 248 248 248 248 246 243 242 241 241 242 243 244 245 246 246 245 245 244 244 244 245 245 244 245 245 245 246
240 240 239 237 236 235 234 233 234 236 237 238 238 239 240 240 240 240 239 237 235 235 236 240 246 250 251 251 250 249 248 247 244 243 244 244 246 247 247 247 247 244 243 243 242 242 242 243 244 245 245 245 246 245 244 243 244 245 246 247 249 249 248
241 242 242 241 239 237 235 234 233 234 235 236 237 237 237 238 239 240 240 239 237 236 235 236 240 245 249 251 250 249 249 249 247 246 245 244 243 245 246 248 248 246 246 247 246 245 244 243 244 244 244 244 245 245 245 243 243 245 246 247 249 250 250
239 241 243 243 242 240 238 237 235 233 233 233 234 236 236 236 237 238 239 239 238 238 237 237 237 240 244 248 250 249 249 249 249 248 248 246 244 245 247 249 249 248 248 250 250 249 247 244 243 244 245 245 244 244 244 244 244 244 245 246 248 250 250
240 240 241 242 243 243 241 240 238 237 235 233 232 234 235 235 236 237 238 239 239 239 239 239 239 239 241 244 248 249 248 248 249 249 249 248 247 248 250 251 251 251 250 250 251 251 250 247 244 243 244 245 245 243 243 243 243 243 244 245 247 249 250
242 240 240 240 241 242 242 241 241 240 239 236 234 233 233 234 235 236 237 238 239 240 240 240 240 240 240 242 245 247 247 247 248 249 249 248 249 250 252 253 253 252 251 250 251 252 252 252 250 248 246 246 246 246 245 243 241 241 242 244 246 247 248
243 242 241 240 240 240 241 241 241 241 240 240 238 236 234 233 234 236 237 237 238 239 240 240 241 242 241 241 242 244 246 246 247 248 249 250 250 251 252 254 254 255 254 252 252 252 252 251 251 250 249 249 250 249 248 246 244 241 241 241 243 246 247
245 244 243 243 242 241 240 240 240 241 240 240 240 239 237 236 235 236 238 238 238 238 239 240 240 241 242 241 240 242 243 243 245 246 248 250 251 252 253 253 253 254 255 254 252 252 251 250 248 248 249 251 251 249 248 248 247 245 243 241 242 244 246
247 246 246 245 244 243 242 241 240 240 240 240 239 239 239 238 237 236 238 239 239 239 238 238 239 240 241 241 241 242 243 243 244 244 245 247 250 252 253 253 253 253 255 256 254 253 255 254 250 248 248 250 250 249 248 248 248 247 246 244 242 243 245
250 249 248 248 247 246 245 243 242 241 241 240 240 239 238 239 238 237 237 239 240 241 240 239 238 238 239 241 242 244 245 246 247 246 245 246 247 249 251 252 253 253 253 255 256 256 257 257 251 247 248 249 248 248 248 247 246 246 246 245 242 241 243
252 252 251 251 250 249 247 246 245 243 242 242 241 240 238 238 238 238 237 237 238 240 241 241 240 239 238 239 240 242 244 246 248 248 247 247 247 248 249 250 252 253 253 255 256 257 258 257 251 248 250 250 246 245 246 244 243 243 244 243 241 241 240
253 253 253 253 253 252 250 249 248 246 245 244 243 242 240 239 238 238 238 237 237 237 238 240 241 241 240 239 238 240 241 244 246 247 247 247 247 248 249 250 251 253 254 255 256 256 257 258 255 252 254 254 247 243 243 245 246 246 244 240 238 238 238
253 254 254 254 254 254 253 252 250 249 247 246 245 244 243 241 240 239 239 239 238 237 237 238 239 241 241 241 239 239 239 240 243 245 246 247 248 248 249 250 252 253 254 254 255 256 256 256 256 254 254 256 251 244 241 244 246 247 246 241 236 236 237
253 254 255 255 255 255 255 254 253 251 250 248 247 247 245 243 242 240 240 240 240 239 238 238 238 239 241 242 241 241 239 239 240 242 244 246 247 247 247 247 248 251 253 253 253 255 255 255 254 252 250 254 257 250 242 239 241 244 244 239 236 238 238
253 254 255 256 257 257 257 257 256 254 253 251 249 248 247 246 245 243 241 240 241 240 240 239 238 238 239 240 242 242 242 241 240 241 243 244 245 246 246 245 245 246 247 248 249 252 253 253 253 251 249 251 257 255 243 237 238 240 239 236 238 241 241
254 255 256 257 258 259 259 259 258 257 256 255 253 250 249 248 247 246 244 242 241 241 241 240 239 238 238 239 240 242 243 243 242 241 242 243 244 245 245 245 245 245 244 243 244 247 250 250 250 250 251 253 257 256 248 240 239 240 240 240 242 243 244